User: anonymous   Login
Location: Caltech
(34.1382°N, 118.1253°W)
Time: 13:25:05
(UTC-07:00)
Language:

CZ-2C R/B - Orbit

View from above orbital plane
View from above orbital plane
View from above satellite
View from above satellite

Ground track
Ground track

The orbit data is extracted from the following two-line orbital elements,

1 36089U 09061B   18110.45606648  .00000076  00000-0  30188-4 0  9999
2 36089  98.0703 103.8730 0082055 178.5768 296.8393 14.49722872446223
Epoch (UTC): 20 April 2018 10:56:44
Eccentricity: 0.0082055
inclination: 98.0703°
perigee height: 668 km
apogee height: 785 km
right ascension of ascending node: 103.8730°
argument of perigee: 178.5768°
revolutions per day: 14.49722872
mean anomaly at epoch: 296.8393°
orbit number at epoch: 44622

The dashed part of the orbit path shows where the satellite is in the earth's shadow,  

DLR